THOR BURNER 2 R/B, 3271

Orbit data source: Space-Track

THOR BURNER 2 R/B, 3271 is space debris in SSO originally from a launch on Thu, 23 May 1968 UTC launched from the Air Force Western Test Range (AFWTR). Debris objects in space refer to the collection of defunct objects orbiting the Earth. Examples of debris include non-operational satellites, rocket bodies, and fragments generated from explosions, collisions, or faulty payload assembly.

Loading next visibility...
Identifier
3271, 1968-042B
Orbit
SSO
Country
Flag of USUS
Related business
Manufacturer
Thiokol/TE
Mission
Spacecraft
Bus & Motor
STAR 37, Unknown motor
Mass
154 kg wet, 154 kg dry
Launch date (UTC)
1968-05-23 (58 years ago)
Launch vehicle
Unknown
Launch site
Air Force Western Test Range (AFWTR)
Object type
Payload
Rocket body
Debris
Shape & HBR
Unknown
Radar Cross Section
Large (>1 m²)

Expand to show TLE details & history
Last TLE update: 19 hours ago

TLE from 19 hours ago
0 THOR BURNER 2 R/B
1 03271U 68042B   26094.45398547  .00000199  00000-0  11720-3 0  9992
2 03271  98.5677 271.3339 0052225  43.7231 316.8063 14.17609417986371
Epoch: 2026-04-04T10:53Z
TLE epoch observation values (Epoch: 2026-04-04T10:53:44.344Z)
Latitude
-0.00003°
Longitude
-84.8744°
Altitude
808.994 km
Speed
7.463 km/s
True Right ascension
18h 05m 20s
True Declination
0° 00' 00"
Sunlit
Object was in daylight at epoch
Visualization orbit readout
Latitude
Unknown
Longitude
Unknown
Altitude
Unknown
Speed
Unknown
Apparent Right ascension
Unknown
Apparent Declination
Unknown
Sunlit
N/A
Visualization observer readout
Local Sidereal Time
12:05:13
Azimuth
Unknown
Elevation
Unknown
Doppler factor
Unknown
Orbital elements
Apogee altitude
868.251 km
Perigee altitude
792.956 km
Semi-major axis
7,208.741 km
Eccentricity
0.00522
Inclination
98.5677°
RAAN
271.3339°
Arg. of periapsis
43.7231°
True anomaly
316.39472°
Mean anomaly
316.8063°
Eccentric anomaly
316.60071°
Mean motion
3.54613 °/min
Orbital period
101.52 mins
BSTAR
0.0001172
Loading maneuver chart data...
Computing Atmospheric mass density...
Loading historical data...
Loading historical data...
Loading historical data...
Loading historical data...
Loading historical data...
Loading historical data...
Loading historical data...
Other satellites on launch #42 in the year 1968 (1968-05-23 UTC)

Documentation

Showing up to 5 results
|